STARLINK-33963, 63968

Orbit data source: Space-Track

STARLINK-33963, 63968 is a payload satellite owned by SpaceX/Seattle (US) in LEO that was launched on Tue, 13 May 2025 UTC via an FALCON 9 launch vehicle from the Air Force Eastern Test Range (AFETR). Payload-class satellites include a variety of spacecraft equipped with specific instruments for various scientific and technological missions. These include communications satellites like Starlink; space stations such as the ISS; scientific satellites like the Hubble; Earth observation satellites from companies like Planet Labs, Umbra, and HawkEye 360; GPS; miniature CubeSats for education and research; and military/defense satellites.

Loading next visibility...
Identifier
63968, 2025-099S
Orbit
LEO
Country
Flag of USUS
Related business
Manufacturer
SpaceX/Seattle
Mission
Operational Commercial Communications
Bus & Motor
STARLINK V2MO, Unknown motor
Mass
575 kg wet, ~530 kg dry
Launch date (UTC)
2025-05-13 (1 year ago)
Launch vehicle
FALCON 9
Launch site
Air Force Eastern Test Range (AFETR)
Object type
Payload
Rocket body
Debris
Shape & HBR
Box + 2 Pan, 17.7 m
Radar Cross Section
36.964 m², Large (>1 m²)

Expand to show TLE details & history
Last TLE update: 1 day ago

TLE from 1 day ago
0 STARLINK-33963
1 63968U 25099S   26170.85072293  .00009770  00000-0  36433-3 0  9994
2 63968  43.0008 318.9955 0001160 251.6188 108.4538 15.27559498 62965
Epoch: 2026-06-19T20:25Z
TLE epoch observation values (Epoch: 2026-06-19T20:25:02.461Z)
Latitude
0.00003°
Longitude
104.6615°
Altitude
483.138 km
Speed
7.626 km/s
True Right ascension
21h 15m 58s
True Declination
0° 00' 00"
Sunlit
Object was in full shadow at epoch
Visualization orbit readout
Latitude
Unknown
Longitude
Unknown
Altitude
Unknown
Speed
Unknown
Apparent Right ascension
Unknown
Apparent Declination
Unknown
Sunlit
N/A
Visualization observer readout
Local Sidereal Time
10:20:20
Azimuth
Unknown
Elevation
Unknown
Doppler factor
Unknown
Orbital elements
Apogee altitude
485.852 km
Perigee altitude
484.259 km
Semi-major axis
6,863.193 km
Eccentricity
0.00012
Inclination
43.0008°
RAAN
318.9955°
Arg. of periapsis
251.6188°
True anomaly
108.46641°
Mean anomaly
108.4538°
Eccentric anomaly
108.4601°
Mean motion
3.81728 °/min
Orbital period
94.31 mins
BSTAR
0.00036433
Loading maneuver chart data...
Computing Atmospheric mass density...
Loading historical data...
Loading historical data...
Loading historical data...
Loading historical data...
Loading historical data...
Loading historical data...
Loading historical data...

Documentation

Showing up to 5 results
|